| time (UTC) | temp F | wind direction | speed MPH | gust MPH | rain 1hr in | rain 24hr in | rain mn in | humidity % | barometer mb |
| 20260503203016 | 79 | 135 | 2.0 | 7.0 | 0.00 | 0.00 | 0.00 | 36 | 1017.6 |
| 20260503202017 | 79 | 135 | 3.0 | 7.0 | 0.00 | 0.00 | 0.00 | 35 | 1017.8 |
| 20260503201016 | 78 | 158 | 3.0 | 11.0 | 0.00 | 0.00 | 0.00 | 35 | 1017.9 |
| 20260503200016 | 79 | 158 | 3.0 | 12.0 | 0.00 | 0.00 | 0.00 | 34 | 1018.2 |
| 20260503195037 | 79 | 90 | 3.0 | 12.0 | 0.00 | 0.00 | 0.00 | 33 | 1018.4 |
| 20260503194016 | 78 | 135 | 3.0 | 12.0 | 0.00 | 0.00 | 0.00 | 35 | 1018.5 |
| 20260503193016 | 78 | 158 | 3.0 | 12.0 | 0.00 | 0.00 | 0.00 | 35 | 1018.7 |
| 20260503192016 | 78 | 135 | 2.0 | 7.0 | 0.00 | 0.00 | 0.00 | 34 | 1018.8 |
| 20260503191038 | 78 | 158 | 3.0 | 9.0 | 0.00 | 0.00 | 0.00 | 36 | 1019.0 |
| 20260503190016 | 78 | 158 | 3.0 | 8.0 | 0.00 | 0.00 | 0.00 | 35 | 1019.1 |
| 20260503185016 | 78 | 135 | 3.0 | 11.0 | 0.00 | 0.00 | 0.00 | 34 | 1019.2 |
| 20260503184017 | 78 | 135 | 3.0 | 9.0 | 0.00 | 0.00 | 0.00 | 36 | 1019.3 |
| 20260503183016 | 78 | 135 | 3.0 | 12.0 | 0.00 | 0.00 | 0.00 | 37 | 1019.6 |
| 20260503182017 | 78 | 158 | 2.0 | 7.0 | 0.00 | 0.00 | 0.00 | 40 | 1019.7 |
| 20260503181036 | 77 | 135 | 3.0 | 11.0 | 0.00 | 0.00 | 0.00 | 38 | 1020.0 |
| 20260503180016 | 78 | 135 | 2.0 | 11.0 | 0.00 | 0.00 | 0.00 | 39 | 1020.2 |
| 20260503175015 | 77 | 135 | 2.0 | 10.0 | 0.00 | 0.00 | 0.00 | 38 | 1020.3 |
| 20260503174017 | 76 | 135 | 3.0 | 10.0 | 0.00 | 0.00 | 0.00 | 38 | 1020.4 |
| 20260503173017 | 76 | 113 | 3.0 | 11.0 | 0.00 | 0.00 | 0.00 | 41 | 1020.8 |
| 20260503172016 | 76 | 135 | 3.0 | 9.0 | 0.00 | 0.00 | 0.00 | 39 | 1020.9 |
| 20260503171036 | 76 | 113 | 2.0 | 7.0 | 0.00 | 0.00 | 0.00 | 41 | 1021.0 |
| 20260503131038 | 53 | 0.0 | 0.0 | 0.00 | 0.00 | 0.00 | 86 | 1020.4 | |
| 20260503081016 | 52 | 0.0 | 0.0 | 0.00 | 0.00 | 0.00 | 79 | 1019.7 | |
| 20260503072016 | 53 | 0.0 | 0.0 | 0.00 | 0.01 | 0.00 | 78 | 1020.2 | |
| 20260503071036 | 53 | 0.0 | 0.0 | 0.00 | 0.01 | 0.00 | 78 | 1020.1 | |
| 20260503055016 | 54 | 0.0 | 0.0 | 0.00 | 0.01 | 0.00 | 70 | 1020.5 | |
| 20260503054037 | 54 | 0.0 | 0.0 | 0.00 | 0.01 | 0.00 | 69 | 1020.4 | |
| 20260503053016 | 55 | 0.0 | 0.0 | 0.00 | 0.01 | 0.00 | 70 | 1020.5 | |
| 20260503052017 | 55 | 0.0 | 0.0 | 0.00 | 0.01 | 0.00 | 70 | 1020.5 | |
| 20260503051016 | 55 | 0.0 | 0.0 | 0.00 | 0.01 | 0.00 | 69 | 1020.3 | |
| 20260503050017 | 55 | 0.0 | 0.0 | 0.00 | 0.01 | 0.01 | 69 | 1020.3 | |
| 20260503045038 | 55 | 0.0 | 0.0 | 0.00 | 0.01 | 0.01 | 69 | 1020.3 | |
| 20260503044017 | 56 | 0.0 | 0.0 | 0.00 | 0.01 | 0.01 | 70 | 1020.3 | |
| 20260503043018 | 56 | 0.0 | 0.0 | 0.00 | 0.01 | 0.01 | 70 | 1020.4 | |
| 20260503042017 | 56 | 0.0 | 0.0 | 0.00 | 0.01 | 0.01 | 70 | 1020.4 | |
| 20260503041037 | 56 | 0.0 | 0.0 | 0.00 | 0.01 | 0.01 | 69 | 1020.0 | |
| 20260503040018 | 57 | 0.0 | 0.0 | 0.00 | 0.01 | 0.01 | 68 | 1020.0 | |
| 20260503035017 | 57 | 0.0 | 0.0 | 0.00 | 0.01 | 0.01 | 68 | 1020.1 | |
| 20260503034018 | 57 | 0.0 | 0.0 | 0.00 | 0.01 | 0.01 | 67 | 1019.8 | |
| 20260503033018 | 57 | 0.0 | 0.0 | 0.00 | 0.01 | 0.01 | 67 | 1019.7 | |
| 20260503032017 | 57 | 0.0 | 0.0 | 0.00 | 0.01 | 0.01 | 66 | 1019.6 | |
| 20260503031017 | 58 | 0.0 | 0.0 | 0.00 | 0.01 | 0.01 | 66 | 1019.5 | |
| 20260503030037 | 58 | 0.0 | 0.0 | 0.00 | 0.01 | 0.01 | 65 | 1019.6 | |
| 20260503025017 | 58 | 0.0 | 0.0 | 0.00 | 0.01 | 0.01 | 65 | 1019.4 | |
| 20260503024017 | 59 | 0.0 | 0.0 | 0.00 | 0.01 | 0.01 | 64 | 1019.2 | |
| 20260503023017 | 59 | 0.0 | 0.0 | 0.00 | 0.01 | 0.01 | 63 | 1019.1 | |
| 20260503022017 | 60 | 0.0 | 0.0 | 0.00 | 0.01 | 0.01 | 62 | 1019.0 | |
| 20260503021017 | 61 | 0.0 | 0.0 | 0.00 | 0.01 | 0.01 | 61 | 1018.9 | |
| 20260503020037 | 62 | 0.0 | 0.0 | 0.00 | 0.01 | 0.01 | 60 | 1018.9 | |
| 20260503015016 | 63 | 0.0 | 0.0 | 0.00 | 0.01 | 0.01 | 59 | 1018.6 | |
| 20260503014018 | 63 | 0.0 | 0.0 | 0.00 | 0.01 | 0.01 | 56 | 1018.4 | |
| 20260503013017 | 64 | 0.0 | 0.0 | 0.00 | 0.01 | 0.01 | 54 | 1018.3 | |
| 20260503012017 | 65 | 0.0 | 0.0 | 0.00 | 0.01 | 0.01 | 54 | 1018.2 | |
| 20260503011017 | 66 | 0.0 | 0.0 | 0.00 | 0.01 | 0.01 | 51 | 1018.1 | |
| 20260503010017 | 66 | 0.0 | 0.0 | 0.00 | 0.01 | 0.01 | 50 | 1018.0 | |
| 20260503005016 | 67 | 0.0 | 1.0 | 0.00 | 0.01 | 0.01 | 48 | 1018.0 | |
| 20260503004017 | 68 | 0.0 | 2.0 | 0.00 | 0.01 | 0.01 | 47 | 1018.0 | |
| 20260503003018 | 68 | 0.0 | 2.0 | 0.00 | 0.01 | 0.01 | 47 | 1017.9 | |
| 20260503002016 | 68 | 45 | 1.0 | 3.0 | 0.00 | 0.01 | 0.01 | 47 | 1018.0 |
| 20260503001016 | 69 | 0 | 1.0 | 5.0 | 0.00 | 0.01 | 0.01 | 44 | 1018.0 |
| 20260503000017 | 70 | 23 | 1.0 | 5.0 | 0.00 | 0.01 | 0.01 | 44 | 1018.1 |
| 20260502235037 | 70 | 0 | 2.0 | 6.0 | 0.00 | 0.01 | 0.01 | 46 | 1018.3 |
| 20260502234016 | 71 | 0 | 1.0 | 5.0 | 0.00 | 0.01 | 0.01 | 43 | 1018.3 |
| 20260502233036 | 71 | 23 | 2.0 | 7.0 | 0.00 | 0.01 | 0.01 | 43 | 1018.2 |
| 20260502232016 | 71 | 23 | 1.0 | 5.0 | 0.00 | 0.01 | 0.01 | 43 | 1018.2 |
| 20260502231139 | 71 | 23 | 2.0 | 9.0 | 0.00 | 0.01 | 0.01 | 41 | 1018.3 |
| 20260502230017 | 72 | 23 | 1.0 | 5.0 | 0.00 | 0.01 | 0.01 | 41 | 1018.2 |
| 20260502225017 | 71 | 23 | 2.0 | 7.0 | 0.00 | 0.01 | 0.01 | 43 | 1018.2 |
| 20260502224037 | 72 | 45 | 3.0 | 10.0 | 0.00 | 0.01 | 0.01 | 43 | 1018.1 |
| 20260502223016 | 72 | 338 | 2.0 | 7.0 | 0.00 | 0.01 | 0.01 | 42 | 1018.3 |
| 20260502222016 | 72 | 68 | 3.0 | 11.0 | 0.00 | 0.01 | 0.01 | 42 | 1018.4 |
| 20260502221016 | 73 | 45 | 2.0 | 9.0 | 0.00 | 0.01 | 0.01 | 42 | 1018.5 |
| 20260502220016 | 73 | 45 | 2.0 | 6.0 | 0.00 | 0.01 | 0.01 | 44 | 1018.5 |
| 20260502215057 | 72 | 23 | 2.0 | 9.0 | 0.00 | 0.01 | 0.01 | 42 | 1018.5 |
| 20260502214016 | 72 | 0 | 2.0 | 9.0 | 0.00 | 0.01 | 0.01 | 43 | 1018.7 |
| 20260502213036 | 71 | 45 | 4.0 | 7.0 | 0.00 | 0.01 | 0.01 | 43 | 1018.9 |
| 20260502212016 | 73 | 45 | 3.0 | 12.0 | 0.00 | 0.01 | 0.01 | 40 | 1019.1 |
| 20260502211016 | 72 | 68 | 3.0 | 7.0 | 0.00 | 0.01 | 0.01 | 42 | 1019.2 |
| 20260502210016 | 72 | 23 | 3.0 | 9.0 | 0.00 | 0.01 | 0.01 | 41 | 1019.3 |
| 20260502205038 | 72 | 23 | 3.0 | 10.0 | 0.00 | 0.01 | 0.01 | 46 | 1019.6 |
| 20260502204016 | 73 | 45 | 3.0 | 6.0 | 0.00 | 0.01 | 0.01 | 39 | 1019.8 |